Погода в Переделкино

Россия / Московская область     55°39′19″N   37°19′49″E
темп.,
°C
ветер,
м/с
пор.,
м/с
влажн.,
%
обл.,
%
осадки,
мм/ч
давл.,
гПа
погр.,
м
25 июня, сб
сб2500:00+18ссв25685 0.0 1017120
03:00+16ссв23745 0.0 101857
06:00+17ссв23725 0.0 1018130
09:00+23св24515 0.0 1019708
12:00+26св34395 0.0 10191826
15:00+28св34336 0.0 10182216
18:00+28ссв34375 0.0 10181946
21:00+23ссв24575 0.0 101996
26 июня, вс
вс2600:00+21вюв11640 0.0 102111
03:00+19зсз11705 0.0 102211
06:00+20сз127014 0.0 102292
09:00+25ссз23505 0.0 1022612
12:00+29ссз23407 0.0 10221931
15:00+31ссз333440 0.0 10212416
18:00+30с233718 0.0 10202199
21:00+25сз25635 0.0 1021167
27 июня, пн
пн2700:00+22зсз24705 0.0 1021105
03:00+21зсз26750 0.0 1021137
06:00+22з37710 0.0 1022200
09:00+27ссз35550 0.0 1021620
12:00+31ссз45390 0.0 10201979
15:00+32сз57310 0.0 10192766
18:00+30ссз58350 0.0 10192279
21:00+25ссз38505 0.0 1019258
28 июня, вт
вт2800:00+23сз23645 0.0 102067
03:00+21св38705 0.0 1021302
06:00+19всв47775 0.0 1022486
09:00+21св46410 0.0 1023878
12:00+24св45283 0.0 10231527
15:00+25ссв45245 0.0 10231844
18:00+23ссв55302 0.0 10231579
21:00+19ссв47455 0.0 1024687
29 июня, ср
ср2900:00+16всв26514 0.0 1025406
03:00+14св24560 0.0 1026163
06:00+14св24490 0.0 1026249
09:00+19св35360 0.0 10261253
12:00+22св45270 0.0 10261863
15:00+23св44240 0.0 10252109
18:00+23ссв34265 0.0 10242011
21:00+19св234273 0.0 102590